Theta_e
341 339 337 338 339 343 344 346 346 348 349 350 352 352 353 351 352 351 348 348 346 349 346 347 350 351 350 350 349 348 349 350
341 342 340 339 337 341 343 344 344 344 345 349 349 350 349 348 348 348 345 342 341 342 343 343 343 346 347 348 346 346 348 346
341 342 343 340 338 340 341 342 342 343 344 346 346 346 346 346 345 345 344 340 339 340 341 343 344 345 345 346 346 342 330 326
311 322 329 339 339 339 341 342 342 342 342 342 342 344 344 344 342 343 344 340 339 343 343 343 344 344 345 344 341 327 324 326
316 325 331 339 339 342 341 342 343 342 343 342 341 341 343 342 342 343 344 345 345 344 343 341 338 341 335 332 327 326 325 324
323 325 329 337 342 342 344 348 345 344 345 345 345 344 344 343 344 345 347 344 342 340 341 330 332 332 332 329 326 324 321 319
333 334 336 337 341 344 344 347 348 347 346 347 346 346 345 343 343 342 342 344 341 338 332 331 329 327 327 327 321 322 319 319
329 329 329 330 332 333 335 338 339 342 344 343 342 341 341 340 340 338 338 340 334 330 329 328 326 322 321 321 319 319 319 317
324 323 324 324 324 326 328 330 330 335 336 337 335 333 337 332 333 336 333 333 331 327 325 324 323 320 319 320 319 318 317 317
320 319 320 319 320 321 322 323 324 327 330 331 332 331 329 328 329 330 331 330 329 326 324 320 319 319 319 319 318 316 316 317
317 317 317 316 315 316 317 318 320 322 325 328 327 326 326 325 325 325 327 328 326 325 322 320 320 321 320 318 317 316 313 315
312 309 307 308 308 310 311 311 313 318 320 320 321 321 321 322 322 323 323 325 325 324 323 322 321 320 318 316 316 316 315 313
303 303 304 305 306 307 308 310 311 311 313 315 315 318 320 321 322 321 321 323 324 324 322 320 319 320 319 318 317 315 316 315
301 302 303 304 304 304 305 305 306 309 310 311 311 312 313 314 317 318 319 319 320 322 321 320 320 319 318 318 317 316 315 314
299 298 299 300 301 302 303 303 302 304 308 308 309 309 310 311 313 315 315 317 318 318 319 318 318 317 317 317 316 315 314 313
298 297 297 298 299 300 300 300 300 302 304 305 306 306 306 307 309 310 313 314 316 317 318 318 317 317 316 316 315 314 314 313
296 297 297 297 297 297 297 298 298 300 300 301 301 302 302 302 304 307 309 312 315 317 317 315 316 316 316 315 313 313 314 313
296 295 295 296 296 296 296 297 297 298 299 299 299 300 300 301 302 303 304 307 310 311 314 316 315 315 315 314 314 313 313 313
293 293 294 294 295 295 295 296 296 297 297 297 298 298 298 299 300 301 303 305 306 307 310 314 314 314 315 314 312 312 311 311
291 292 292 293 293 294 294 295 296 297 297 297 296 297 297 297 298 299 302 302 304 305 307 310 312 313 313 313 310 310 309 308
Wind_Speed
11 12 12 14 10 7 8 4 3 4 3 3 2 1 3 3 4 2 2 1 2 2 2 2 2 4 3 3 2 2 3 1
12 13 13 12 12 10 5 6 6 6 3 3 2 2 3 2 2 4 2 2 2 3 2 3 3 2 3 2 1 2 1 2
8 8 5 9 11 10 8 7 5 3 3 2 3 3 3 4 4 4 3 3 3 3 3 3 3 2 2 3 2 1 3 4
5 3 3 7 9 12 9 8 6 4 3 4 4 3 3 1 2 4 6 4 4 3 3 3 3 3 3 1 2 3 3 3
2 3 4 6 7 10 11 8 6 5 4 4 3 3 3 3 4 4 5 4 3 2 2 2 1 1 2 2 4 3 3 3
8 4 5 5 7 9 8 5 5 4 4 3 3 3 3 4 3 2 1 2 3 1 2 3 2 3 2 3 2 3 3 3
12 12 12 12 8 10 10 7 6 6 3 2 2 2 1 3 1 2 3 1 1 2 2 2 3 3 3 2 3 2 3 4
12 13 13 12 11 11 8 5 5 5 3 3 2 2 2 2 1 2 2 3 5 5 4 4 3 4 4 3 4 4 2 3
14 13 13 13 15 14 12 11 8 5 4 3 3 2 2 3 2 4 4 5 6 6 5 5 5 5 3 4 2 4 6 5
16 15 16 15 13 12 12 10 8 6 3 2 2 2 2 2 2 2 3 5 6 6 7 5 5 4 5 5 3 1 1 4
14 17 17 17 17 15 14 13 13 10 6 2 3 4 3 3 3 3 3 2 4 6 7 7 7 5 4 4 3 2 1 1
16 17 18 17 15 15 16 15 14 11 11 7 6 2 2 1 1 1 3 3 1 5 8 6 6 5 7 5 6 5 5 2
17 16 15 15 15 14 13 13 15 14 13 11 7 6 2 1 1 1 3 2 4 4 5 6 5 3 3 5 6 5 3 2
15 14 14 14 13 13 12 13 12 14 12 11 10 9 9 7 7 4 4 2 2 3 3 4 5 5 6 4 3 4 4 3
14 16 15 13 13 13 12 12 12 12 12 12 11 12 10 8 7 6 7 4 3 5 5 6 4 5 4 4 4 4 5 4
10 9 9 10 12 13 13 11 8 6 8 11 11 10 7 7 8 8 7 7 6 5 6 5 6 5 5 5 4 4 5 5
9 11 11 10 8 6 7 8 7 6 6 5 7 6 7 9 11 9 7 8 8 8 6 6 6 5 5 4 4 4 3 3
9 11 12 10 8 8 8 8 10 10 10 9 9 6 8 8 8 10 10 9 9 9 8 6 5 4 4 3 4 5 4 4
9 8 8 8 9 10 11 12 12 13 12 12 13 13 14 12 10 9 8 8 9 10 9 7 5 6 5 5 5 8 6 5
6 7 7 8 7 9 9 9 12 15 15 14 15 15 13 12 12 12 10 9 8 8 9 9 7 6 5 5 4 4 3 4
Wind_Direction
177 200 200 193 171 178 195 165 144 165 163 163 177 131 182 196 211 212 225 233 246 239 243 259 258 254 247 259 306 324 309 310
195 196 199 179 176 177 157 163 192 192 179 158 157 175 178 183 203 208 198 219 241 251 238 234 234 228 244 244 242 316 355 56
241 232 161 159 175 158 175 185 210 218 186 136 192 188 180 197 195 214 196 213 232 232 248 250 238 255 273 268 271 63 66 47
258 253 220 166 157 157 164 185 197 182 190 159 203 204 203 222 234 228 211 200 221 244 272 264 269 245 250 213 155 101 61 34
354 33 91 140 134 142 168 169 185 188 183 196 201 214 181 217 224 225 236 216 232 201 204 274 20 48 75 55 66 64 54 13
36 17 75 80 115 132 127 163 157 153 181 197 198 200 210 222 227 279 274 156 185 130 44 64 52 76 119 81 60 65 51 17
34 39 47 55 64 83 95 107 127 139 151 176 194 175 237 313 324 66 348 352 139 102 70 54 68 78 63 71 53 92 23 353
31 35 47 53 50 54 56 77 56 85 85 75 57 58 47 29 52 113 129 112 100 109 106 77 68 63 48 44 57 46 26 351
46 38 42 54 47 45 33 42 11 27 40 36 34 13 35 31 13 99 107 115 120 117 98 86 76 77 63 49 70 33 18 1
40 40 42 41 49 47 41 36 21 23 7 28 84 77 49 38 346 79 118 128 128 123 117 107 98 99 74 57 31 131 41 22
45 38 32 32 27 23 23 17 17 16 16 19 46 81 52 24 1 355 352 87 125 116 117 131 137 151 131 129 104 55 24 288
45 42 33 28 26 28 26 20 18 10 4 10 17 60 118 201 228 290 333 350 78 143 150 153 156 165 161 168 160 178 150 195
51 46 40 33 27 30 24 25 27 14 13 16 350 5 13 268 262 200 201 205 226 186 170 167 172 188 175 170 176 165 167 145
49 46 40 33 26 23 21 20 19 13 9 8 9 16 356 351 331 306 289 293 273 246 218 196 193 187 204 194 174 161 160 173
40 34 24 15 14 12 10 11 8 5 4 359 355 10 4 342 338 329 324 308 287 237 218 218 207 213 210 186 193 185 179 186
40 29 17 7 6 7 358 354 340 343 350 351 351 354 343 335 340 337 326 313 297 289 273 255 233 222 216 214 222 199 192 205
16 6 6 359 352 338 328 323 326 323 331 323 310 322 334 327 324 325 324 322 316 306 283 258 267 266 247 233 247 239 227 238
357 359 352 345 333 322 317 321 334 335 331 330 329 317 333 319 312 312 312 312 320 321 312 292 277 275 276 268 277 279 260 269
340 333 325 315 323 333 334 337 335 333 332 334 336 330 327 319 312 303 295 302 310 314 310 303 284 273 264 271 258 263 254 271
311 308 310 323 326 333 328 325 329 330 327 324 321 317 312 312 312 307 306 304 299 298 300 296 289 278 261 257 269 285 288 294